Weather History for Sanford, ME

Change the Weather History Date:

Tuesday, June 18, 2013

  Actual Average Record
Temperature  
Mean Temperature 60 °F -  
Max Temperature 66 °F 74 °F 91 °F (2006)
Min Temperature 53 °F 51 °F 44 °F (2012)
Degree Days  
Heating Degree Days 6    
Growing Degree Days 10 (Base 50)    
Moisture  
Dew Point 54 °F    
Average Humidity 81    
Maximum Humidity 94    
Minimum Humidity 64    
Precipitation  
Precipitation 0.01 in - - ()
Sea Level Pressure  
Sea Level Pressure 29.93 in    
Wind  
Wind Speed 3 mph (North)    
Max Wind Speed 9 mph    
Max Gust Speed -    
Visibility 10 miles    
Events      
Averages and records for this station are not official NWS values.
T = Trace of Precipitation, MM = Missing Value Source: NWS Daily Summary

Daily Weather History Graph

Daily Weather History Graph

Search for Another Location

Airport:

Trip Planner

Search our weather history database for the weather conditions in past years. The results will help you decide how hot, cold, wet, or windy it might be!

Date:

Astronomy

Jun. 18, 2013 Rise Set
Actual Time 5:01 AM EDT 8:26 PM EDT
Civil Twilight 4:26 AM EDT 9:02 PM EDT
Nautical Twilight 3:39 AM EDT 9:48 PM EDT
Astronomical Twilight 2:40 AM EDT 10:47 PM EDT
Moon 3:00 PM EDT (6/18) 1:16 AM EDT (6/18)
Length of Visible Light 16h 36m
Length of Day
15h 24m
Waxing Gibbous, 70% of the Moon is Illuminated
Jun 18
Waxing Gibbous
Jun 23
Full
Jun 30
Last Quarter
Jul 8
New
Jul 15
First Quarter

Hourly Weather History & Observations

Time (EDT) Temp. Dew Point Humidity Pressure Visibility Wind Dir Wind Speed Gust Speed Precip Events Conditions
12:15 AM 60.8 °F 57.2 °F 88% 29.87 in 10.0 mi WSW 6.9 mph - N/A   Scattered Clouds
12:35 AM 60.8 °F 55.4 °F 82% 29.87 in 10.0 mi West 6.9 mph - N/A   Mostly Cloudy
12:55 AM 60.8 °F 55.4 °F 82% 29.88 in 10.0 mi WSW 4.6 mph - N/A   Mostly Cloudy
1:15 AM 59.0 °F 55.4 °F 88% 29.89 in 10.0 mi West 4.6 mph - N/A   Mostly Cloudy
1:35 AM 57.2 °F 53.6 °F 88% 29.88 in 10.0 mi West 3.5 mph - N/A   Overcast
1:55 AM 59.0 °F 55.4 °F 88% 29.88 in 10.0 mi WSW 4.6 mph - N/A   Overcast
2:15 AM 60.8 °F 55.4 °F 82% 29.89 in 10.0 mi WSW 4.6 mph - N/A   Overcast
2:35 AM 59.0 °F 55.4 °F 88% 29.88 in 10.0 mi Calm Calm - N/A   Overcast
2:55 AM 57.2 °F 53.6 °F 88% 29.87 in 10.0 mi Calm Calm - N/A   Scattered Clouds
3:15 AM 57.2 °F 53.6 °F 88% 29.87 in 10.0 mi Calm Calm - N/A   Clear
3:35 AM 55.4 °F 51.8 °F 88% 29.88 in 8.0 mi Calm Calm - N/A   Clear
3:55 AM 55.4 °F 51.8 °F 88% 29.88 in 9.0 mi Calm Calm - N/A   Clear
4:15 AM 53.6 °F 51.8 °F 94% 29.88 in 6.0 mi Calm Calm - N/A   Clear
4:35 AM 53.6 °F 48.2 °F 82% 29.88 in 10.0 mi Calm Calm - N/A   Clear
4:55 AM 53.6 °F 50.0 °F 88% 29.89 in 5.0 mi Calm Calm - N/A   Clear
5:15 AM 53.6 °F 48.2 °F 82% 29.90 in 6.0 mi Calm Calm - N/A   Clear
5:35 AM 53.6 °F 48.2 °F 82% 29.91 in 9.0 mi Calm Calm - N/A   Clear
5:55 AM 53.6 °F 50.0 °F 88% 29.90 in 9.0 mi Calm Calm - N/A   Clear
6:15 AM 55.4 °F 51.8 °F 88% 29.91 in 9.0 mi Calm Calm - N/A   Clear
6:36 AM 57.2 °F 53.6 °F 88% 29.92 in 10.0 mi Calm Calm - N/A   Clear
6:55 AM 59.0 °F 53.6 °F 82% 29.92 in 10.0 mi Calm Calm - N/A   Clear
7:15 AM 60.8 °F 53.6 °F 77% 29.92 in 10.0 mi Calm Calm - N/A   Clear
7:35 AM 62.6 °F 53.6 °F 72% 29.93 in 10.0 mi West 4.6 mph - N/A   Clear
7:55 AM 64.4 °F 53.6 °F 68% 29.93 in 10.0 mi WNW 4.6 mph - N/A   Clear
8:15 AM 64.4 °F 53.6 °F 68% 29.94 in 10.0 mi West 5.8 mph - N/A   Clear
8:35 AM 66.2 °F 53.6 °F 64% 29.94 in 10.0 mi West 3.5 mph - N/A   Clear
8:55 AM 66.2 °F 53.6 °F 64% 29.94 in 10.0 mi Calm Calm - N/A   Clear
9:35 AM 66.2 °F 55.4 °F 68% 29.95 in 10.0 mi ENE 5.8 mph - N/A   Mostly Cloudy
9:55 AM 66.2 °F 55.4 °F 68% 29.95 in 10.0 mi Calm Calm - N/A   Mostly Cloudy
10:15 AM 66.2 °F 55.4 °F 68% 29.95 in 8.0 mi ESE 4.6 mph - N/A   Mostly Cloudy
10:35 AM 66.2 °F 53.6 °F 64% 29.95 in 10.0 mi East 5.8 mph - N/A   Overcast
10:55 AM 64.4 °F 55.4 °F 73% 29.95 in 10.0 mi ESE 3.5 mph - N/A   Overcast
11:15 AM 64.4 °F 55.4 °F 73% 29.95 in 7.0 mi Calm Calm - N/A   Overcast
11:35 AM 62.6 °F 55.4 °F 77% 29.96 in 10.0 mi Calm Calm - N/A   Overcast
11:55 AM 62.6 °F 55.4 °F 77% 29.97 in 9.0 mi Calm Calm - N/A   Overcast
12:15 PM 62.6 °F 53.6 °F 72% 29.98 in 10.0 mi Calm Calm - N/A   Overcast
12:35 PM 60.8 °F 55.4 °F 82% 29.99 in 10.0 mi NNW 3.5 mph - N/A   Overcast
12:55 PM 60.8 °F 55.4 °F 82% 29.98 in 10.0 mi North 3.5 mph - 0.01 in   Overcast
1:15 PM 60.8 °F 53.6 °F 77% 29.96 in 10.0 mi NNE 3.5 mph - N/A   Overcast
1:35 PM 62.6 °F 53.6 °F 72% 29.97 in 10.0 mi NNW 4.6 mph - N/A   Overcast
1:55 PM 60.8 °F 53.6 °F 77% 29.96 in 10.0 mi North 4.6 mph - N/A   Overcast
2:15 PM 60.8 °F 53.6 °F 77% 29.96 in 10.0 mi North 4.6 mph - N/A   Overcast
2:35 PM 60.8 °F 53.6 °F 77% 29.95 in 10.0 mi NE 4.6 mph - N/A   Overcast
2:55 PM 60.8 °F 55.4 °F 82% 29.95 in 10.0 mi NE 9.2 mph - N/A   Overcast
3:15 PM 60.8 °F 53.6 °F 77% 29.95 in 10.0 mi ENE 6.9 mph - N/A   Overcast
3:35 PM 59.0 °F 53.6 °F 82% 29.95 in 10.0 mi North 6.9 mph - N/A   Overcast
3:55 PM 59.0 °F 53.6 °F 82% 29.95 in 10.0 mi NNE 5.8 mph - N/A   Overcast
4:15 PM 59.0 °F 53.6 °F 82% 29.94 in 10.0 mi NNE 5.8 mph - N/A   Overcast
4:35 PM 59.0 °F 53.6 °F 82% 29.94 in 10.0 mi Calm Calm - N/A   Overcast
4:55 PM 60.8 °F 53.6 °F 77% 29.95 in 10.0 mi East 3.5 mph - N/A   Overcast
5:15 PM 60.8 °F 53.6 °F 77% 29.95 in 10.0 mi Calm Calm - N/A   Overcast
5:35 PM 60.8 °F 53.6 °F 77% 29.95 in 10.0 mi Calm Calm - N/A   Overcast
5:55 PM 60.8 °F 53.6 °F 77% 29.95 in 10.0 mi Calm Calm - N/A   Overcast
6:15 PM 60.8 °F 51.8 °F 72% 29.95 in 10.0 mi NNE 3.5 mph - N/A   Overcast
6:35 PM 60.8 °F 53.6 °F 77% 29.95 in 10.0 mi NNE 4.6 mph - N/A   Overcast
6:55 PM 60.8 °F 53.6 °F 77% 29.94 in 10.0 mi Calm Calm - N/A   Overcast
7:15 PM 59.0 °F 53.6 °F 82% 29.94 in 10.0 mi Calm Calm - N/A   Overcast
7:35 PM 59.0 °F 53.6 °F 82% 29.94 in 10.0 mi Calm Calm - N/A   Overcast
7:55 PM 59.0 °F 53.6 °F 82% 29.94 in 10.0 mi Calm Calm - N/A   Overcast
8:15 PM 59.0 °F 53.6 °F 82% 29.94 in 10.0 mi Calm Calm - N/A   Overcast
8:35 PM 59.0 °F 53.6 °F 82% 29.94 in 10.0 mi Calm Calm - N/A   Overcast
8:55 PM 59.0 °F 53.6 °F 82% 29.94 in 10.0 mi Calm Calm - N/A   Overcast
9:15 PM 57.2 °F 53.6 °F 88% 29.94 in 10.0 mi Calm Calm - N/A   Overcast
9:35 PM 57.2 °F 53.6 °F 88% 29.95 in 7.0 mi Calm Calm - N/A   Overcast
9:55 PM 57.2 °F 53.6 °F 88% 29.95 in 10.0 mi Calm Calm - N/A   Overcast
10:15 PM 57.2 °F 53.6 °F 88% 29.94 in 10.0 mi Calm Calm - N/A   Overcast
10:35 PM 57.2 °F 53.6 °F 88% 29.94 in 10.0 mi Calm Calm - N/A   Mostly Cloudy
10:55 PM 57.2 °F 53.6 °F 88% 29.93 in 10.0 mi Calm Calm - N/A   Overcast
11:15 PM 57.2 °F 53.6 °F 88% 29.94 in 10.0 mi Calm Calm - N/A   Overcast
11:35 PM 57.2 °F 53.6 °F 88% 29.94 in 10.0 mi Calm Calm - N/A   Overcast
11:55 PM 55.4 °F 53.6 °F 94% 29.94 in 8.0 mi Calm Calm - N/A   Overcast